Wind_Speed
25 26 23 21 21 22 22 19 16 12 10 10 11 12 10 8 8 6 5 5 4 4 10 10 13 9 7 6 4 2 2 2 2 2 3 3 3 4 2 5 5 6 5 4 3 2 7 7 5 6 4 4 7 9
28 25 23 23 21 23 22 21 19 16 13 14 16 16 13 11 10 8 6 6 7 8 8 12 15 18 17 10 5 4 2 2 3 3 1 2 3 2 4 4 1 3 6 4 8 6 7 16 12 11 13 14 11 11
25 23 24 24 23 23 24 23 21 19 15 15 17 19 18 17 13 11 10 9 10 9 13 13 14 17 21 20 14 5 3 4 2 2 2 1 5 3 4 5 3 5 6 4 0 6 16 33 35 27 29 27 16 12
25 22 24 25 23 25 25 24 23 21 18 16 18 17 19 20 17 13 11 10 9 5 3 5 7 10 15 21 19 16 10 5 4 3 3 2 2 5 3 3 4 6 8 4 7 12 17 25 26 26 26 25 24 22
26 24 23 24 23 26 26 25 25 23 19 18 17 18 18 21 18 13 13 12 11 9 4 8 18 18 15 17 22 18 16 10 5 3 2 3 4 2 2 2 4 11 7 5 6 8 7 11 10 10 9 13 26 26
27 27 25 24 23 25 26 25 25 24 21 19 18 19 20 23 18 12 7 13 17 12 4 3 4 6 10 15 16 17 15 12 7 5 5 6 6 4 3 4 10 16 21 20 11 17 13 18 18 24 29 29 24 19
29 29 28 26 23 24 26 26 26 25 23 21 17 15 20 23 21 16 4 2 7 3 5 6 4 2 7 9 9 11 12 8 7 4 6 5 6 8 3 8 7 11 10 12 23 25 27 34 26 26 26 24 24 24
29 29 30 29 25 23 25 26 26 26 25 21 15 15 19 21 21 21 20 13 8 5 7 2 3 2 12 7 5 9 7 8 8 5 3 4 4 5 5 12 19 22 21 23 23 18 25 30 33 30 25 26 30 29
30 28 30 31 29 26 25 24 26 26 26 18 16 20 21 19 13 14 18 18 17 14 5 5 3 4 10 5 5 7 6 2 4 3 4 5 3 7 9 12 20 18 11 22 26 26 27 30 35 37 34 33 30 31
29 30 31 32 31 29 26 24 25 25 25 23 25 13 7 10 15 8 9 7 9 12 11 6 7 3 12 8 5 5 4 3 2 4 4 4 5 25 30 26 22 18 17 20 22 23 26 30 29 31 30 27 28 30
30 30 30 34 32 30 28 26 27 26 30 30 14 12 10 16 17 9 6 7 9 4 10 12 26 7 12 4 4 11 3 2 1 3 4 3 4 6 16 13 18 23 19 16 18 21 22 24 29 31 33 30 28 28
26 31 30 31 34 32 28 29 32 34 37 26 16 16 14 8 7 4 4 3 5 5 8 9 10 12 10 7 3 5 3 2 5 7 1 4 5 12 9 7 3 3 6 10 12 17 19 21 23 26 29 28 25 25
28 26 29 32 30 30 33 32 36 40 42 25 11 11 10 7 5 8 10 4 4 9 14 12 5 12 7 7 4 3 3 5 9 3 5 6 5 10 11 5 2 3 6 10 13 15 18 21 21 21 21 16 14 18
27 28 27 25 31 30 27 31 41 50 30 13 12 8 7 6 7 6 6 5 10 9 26 24 9 5 6 5 3 4 3 2 3 4 7 3 19 16 10 6 3 3 4 8 12 17 20 22 22 18 16 16 16 18
28 27 27 27 27 29 24 30 52 58 21 10 10 9 11 11 7 7 15 9 9 22 30 13 7 3 2 3 3 4 2 5 6 5 3 8 18 17 11 8 4 2 6 11 15 18 20 23 24 23 18 18 19 19
28 26 32 30 28 26 30 23 59 47 18 10 11 6 4 8 5 8 17 13 21 29 23 5 4 4 5 4 5 8 7 7 4 3 9 19 19 14 11 9 4 2 7 12 15 17 20 22 24 24 22 19 18 18
25 30 31 25 23 21 26 27 36 18 13 8 6 23 21 11 20 17 22 23 31 30 4 4 8 9 3 3 5 6 6 4 8 8 14 19 14 10 8 8 7 6 7 14 20 22 24 23 22 23 22 18 18 17
32 29 25 18 16 18 22 34 15 13 10 9 6 15 28 8 18 22 22 31 25 15 11 5 6 5 6 6 4 4 15 12 8 9 18 16 11 13 13 12 14 12 14 22 26 27 26 24 23 23 21 18 18 16
30 28 23 19 17 19 8 10 9 5 9 7 16 15 26 22 17 25 37 41 27 28 9 7 5 5 5 6 6 8 14 18 16 16 21 19 16 15 13 14 15 17 25 27 27 26 24 22 22 22 21 20 20 18
26 24 23 21 19 16 6 7 8 6 5 11 12 22 16 14 24 22 34 38 32 18 7 6 6 8 9 18 19 19 14 15 17 16 16 14 12 13 18 20 26 29 29 29 28 26 25 24 23 21 20 21 21 21
22 25 23 22 25 23 13 7 8 8 11 8 15 23 9 16 18 19 19 32 18 9 6 23 30 36 32 29 20 16 16 16 19 18 15 17 24 28 30 31 31 30 28 27 28 27 26 29 26 21 21 23 21 21
20 19 15 19 14 9 10 15 6 8 12 7 17 17 6 5 11 19 22 18 12 31 27 34 38 44 42 44 47 43 35 30 29 29 29 32 35 37 35 33 29 29 28 28 28 28 29 27 23 22 23 21 21 21
18 13 11 9 9 7 6 14 8 9 4 8 13 5 3 4 13 22 7 14 25 36 37 42 43 38 44 42 38 38 37 35 39 40 40 41 40 38 35 31 26 25 27 28 26 26 25 23 22 22 20 21 22 24
17 10 8 10 14 4 6 6 6 7 5 4 6 5 5 4 17 5 5 13 33 34 39 43 38 39 41 43 46 45 46 46 45 47 46 41 39 37 31 24 21 24 26 22 24 25 25 24 22 23 22 22 24 27
8 8 8 6 9 5 5 3 3 3 5 4 5 3 4 9 4 4 5 6 29 33 39 40 42 46 42 41 35 42 45 42 44 43 39 37 29 23 23 21 21 22 19 21 22 21 23 23 22 23 24 24 26 29
6 10 9 10 7 6 7 5 6 5 3 3 5 5 6 3 4 8 4 19 24 30 42 50 53 45 42 42 40 43 46 38 31 31 32 29 25 24 21 19 20 22 17 17 19 21 21 20 21 22 24 24 26 28
6 7 8 8 5 6 3 1 4 3 5 6 5 5 3 5 8 5 9 21 29 39 45 48 45 43 44 45 41 39 37 31 26 22 17 16 16 16 17 18 21 20 20 22 21 20 19 17 18 18 21 23 23 27
9 10 8 9 6 5 4 3 6 8 5 7 8 7 9 9 6 9 11 17 27 36 26 21 29 35 37 35 29 21 18 18 17 15 16 15 15 15 18 19 19 18 20 19 18 18 17 16 16 16 18 19 21 25
5 11 13 5 2 4 6 9 6 10 15 17 8 5 5 9 19 21 18 19 18 17 21 22 25 24 21 18 16 15 15 16 19 19 18 17 17 17 17 18 18 18 17 16 15 15 15 15 14 13 12 15 16 16
5 20 5 6 6 7 6 13 7 20 21 23 21 16 16 22 26 26 25 21 16 15 21 22 21 23 21 19 17 16 17 17 16 16 16 18 20 18 18 17 16 15 15 13 13 14 14 13 13 15 14 13 14 20
15 17 3 3 5 11 21 20 19 15 19 19 23 17 17 16 23 23 22 22 18 20 25 28 27 24 19 16 17 16 18 19 20 20 20 21 22 22 21 19 19 18 15 13 13 13 15 14 14 14 14 16 21 22
14 10 6 5 4 6 11 10 7 6 5 5 5 7 7 6 6 18 22 25 28 32 31 25 22 22 20 20 22 25 26 24 21 21 21 23 20 17 16 15 15 14 13 14 12 11 10 12 13 15 19 23 22 19
6 7 5 5 2 3 9 8 5 2 4 3 4 5 8 7 8 15 19 22 23 21 28 29 29 29 28 28 26 25 24 24 25 26 26 24 20 19 16 14 13 14 14 11 10 10 11 13 17 22 22 21 20 17
Wind_Direction
279 286 284 289 285 280 271 270 265 264 257 239 222 225 229 229 235 248 281 316 254 270 279 246 228 209 198 191 166 198 47 246 34 115 152 209 201 231 208 228 196 189 164 202 151 229 280 175 116 175 233 311 303 256
279 280 282 278 274 276 269 263 260 259 249 245 231 231 243 239 243 249 271 293 292 274 281 281 258 247 237 232 226 207 265 235 194 89 230 124 221 186 191 268 102 242 192 186 188 217 215 193 212 231 265 273 300 299
269 277 280 274 269 271 270 256 255 255 252 246 244 233 235 238 236 249 267 278 296 294 292 271 265 243 230 229 234 230 233 216 213 241 182 241 242 137 205 238 234 241 195 231 9 234 231 242 249 255 255 254 270 269
265 271 276 272 267 265 269 258 249 251 254 249 246 243 230 229 233 247 253 257 259 270 260 287 276 243 230 226 229 230 244 226 221 214 216 194 241 195 244 271 219 218 150 217 270 284 275 260 239 266 264 249 249 254
258 260 265 269 269 266 264 263 246 247 248 255 246 241 230 224 232 242 256 262 256 232 260 288 288 269 239 227 227 228 227 220 209 194 165 233 240 238 243 296 247 188 206 191 230 252 254 292 306 290 287 285 241 240
252 254 256 261 263 266 261 260 248 242 248 249 252 243 228 218 222 231 271 253 241 240 268 299 258 254 234 218 219 225 225 217 211 204 214 227 220 210 262 257 248 226 229 239 246 288 296 281 286 289 293 288 279 279
249 248 252 253 255 261 260 257 252 238 244 246 247 231 214 209 212 201 224 143 145 206 268 297 282 201 201 204 207 217 219 226 219 225 232 237 203 198 225 247 240 248 264 275 290 290 279 272 275 291 283 282 289 281
256 248 249 250 250 254 259 255 252 235 240 238 223 213 200 206 215 223 227 238 240 237 252 239 269 253 182 180 200 192 191 204 230 244 236 218 189 219 252 243 258 262 275 283 288 283 276 276 274 275 283 288 271 267
250 250 247 249 249 249 252 252 246 234 237 213 198 195 196 207 221 227 237 243 242 218 230 199 204 226 176 166 164 172 181 179 229 256 244 171 204 225 233 234 256 257 285 294 299 295 292 285 283 283 284 276 274 262
250 247 246 245 247 248 247 242 238 228 225 182 193 179 198 198 206 201 215 215 211 213 230 219 204 217 161 171 176 151 189 218 201 230 177 225 256 256 251 247 251 250 304 299 300 313 316 310 308 302 294 288 269 263
245 245 243 244 245 246 244 237 230 218 186 190 185 197 186 172 173 188 218 197 189 226 215 215 192 152 192 143 187 199 180 180 217 235 170 257 265 247 253 255 241 250 272 293 297 303 307 305 306 306 301 289 275 267
251 247 245 248 248 245 242 243 231 210 188 188 178 163 152 179 186 194 205 186 194 229 195 167 190 177 162 176 132 203 175 120 234 145 129 262 249 247 182 178 220 279 323 332 330 327 328 324 321 313 306 295 277 266
251 253 250 247 250 252 242 243 240 216 189 164 173 155 161 184 210 202 189 219 211 187 177 161 135 163 150 176 122 137 184 228 131 168 219 229 245 189 189 191 138 14 359 354 350 346 344 340 335 325 321 317 293 274
252 252 250 252 245 242 229 248 233 201 171 177 167 172 195 192 233 198 192 179 199 165 155 149 133 162 158 150 149 165 209 112 242 253 238 221 209 184 180 178 144 80 32 17 10 5 356 346 340 332 315 306 300 294
254 251 254 249 250 246 249 243 219 194 184 184 185 193 209 210 209 211 202 153 142 158 149 131 104 136 157 152 182 99 170 242 223 233 233 237 174 173 176 174 155 77 19 9 6 3 359 354 346 337 321 304 295 291
251 255 248 250 251 256 241 258 203 193 202 205 209 194 189 165 171 176 185 171 160 155 154 153 136 158 209 177 162 207 165 222 240 215 233 167 167 176 183 190 188 352 4 0 353 348 346 344 336 333 329 313 298 290
246 247 252 252 255 258 245 234 190 197 201 205 213 213 187 183 188 180 184 183 167 155 191 156 175 201 95 161 204 188 206 216 204 210 193 185 183 192 200 220 250 283 327 343 338 332 329 330 326 320 318 308 296 288
240 248 253 258 262 256 267 210 200 203 205 201 176 212 199 194 177 176 178 178 166 195 158 211 150 182 196 181 236 223 214 202 177 184 185 193 213 228 238 257 260 280 304 320 319 314 314 315 314 312 305 298 285 275
243 246 250 250 251 241 239 223 217 213 196 182 204 192 192 209 208 203 193 182 180 183 158 181 227 203 208 216 195 195 199 198 219 220 213 218 233 247 254 274 274 281 302 306 305 305 305 304 304 302 303 292 278 267
242 245 244 239 239 236 252 240 211 218 184 189 194 185 188 201 203 199 188 177 180 175 198 219 218 219 207 237 244 234 226 224 213 207 221 232 233 268 284 290 293 295 293 296 297 297 297 294 293 295 293 283 268 255
239 242 239 242 246 231 219 225 229 213 169 188 188 174 184 183 174 175 177 180 188 205 221 221 230 238 243 246 244 239 225 224 230 238 253 269 282 289 290 292 291 290 292 295 295 295 289 286 291 290 285 279 271 256
233 235 232 237 232 229 237 209 216 192 176 157 158 177 159 182 183 190 182 195 217 220 220 225 231 236 241 244 245 244 248 257 259 262 268 274 281 287 288 289 290 290 292 292 290 290 291 293 293 280 277 277 263 249
223 217 223 226 221 226 244 192 173 182 150 178 156 156 176 184 194 177 205 219 230 227 229 234 236 237 244 249 251 253 254 258 262 266 268 272 279 282 281 284 285 286 284 287 293 293 292 293 289 278 273 267 257 243
204 200 206 208 207 210 185 219 178 150 144 175 170 181 176 180 166 207 239 231 230 230 231 236 237 242 246 249 251 253 256 259 262 266 267 271 275 275 278 277 276 273 274 285 285 288 296 296 289 277 269 265 253 241
178 212 210 216 202 176 191 194 206 161 175 170 152 163 177 167 180 222 233 228 227 229 233 234 238 242 244 247 250 257 261 257 257 264 272 270 271 266 263 262 262 268 278 283 289 297 296 290 282 277 271 262 253 241
182 216 203 200 174 189 177 179 201 197 143 141 185 160 153 159 187 239 225 224 227 226 232 234 233 234 237 238 240 249 262 261 258 258 264 263 255 253 252 255 263 271 287 294 299 294 291 289 279 275 272 262 254 246
207 230 208 203 193 141 122 70 166 158 175 178 171 151 160 202 226 240 211 236 233 240 244 244 239 232 237 250 257 255 256 257 258 263 259 242 230 233 244 261 276 288 293 293 292 291 288 288 281 276 269 261 253 249
210 187 172 185 181 205 162 181 187 198 192 175 144 178 188 204 225 208 243 247 245 241 239 238 248 248 250 252 257 255 242 230 222 212 219 221 230 246 259 272 286 290 287 287 287 283 281 283 280 278 267 258 251 245
187 182 157 158 127 207 217 197 209 220 179 170 184 206 227 232 248 251 260 264 252 241 233 229 227 223 225 219 208 204 202 202 199 203 217 236 247 259 272 277 283 283 279 275 277 280 277 272 270 263 251 248 248 238
187 180 154 161 182 217 242 217 240 230 211 217 222 235 238 238 247 249 244 242 246 246 243 230 221 213 205 201 201 208 203 205 219 229 241 254 267 268 272 279 281 279 277 271 273 274 261 245 237 229 220 216 212 199
192 180 147 172 220 217 231 241 240 241 226 222 222 234 245 248 250 250 246 232 239 235 241 233 222 213 205 211 219 220 227 237 245 249 252 258 264 270 273 275 276 275 270 262 256 243 240 244 235 224 210 198 187 186
164 175 165 187 249 221 217 202 199 220 245 228 252 231 244 261 257 250 246 248 251 238 236 228 219 223 234 245 252 253 253 252 251 252 250 254 256 256 257 261 266 264 253 245 241 237 230 225 218 202 182 177 176 176
153 155 147 146 149 198 204 192 193 231 240 239 247 230 232 236 246 256 256 245 240 241 233 235 243 250 253 253 254 253 248 245 243 244 246 250 250 247 248 253 253 242 236 230 217 199 197 194 183 173 173 172 170 168
Height
1502 1501 1502 1501 1501 1500 1499 1500 1503 1502 1502 1503 1505 1506 1506 1505 1505 1507 1507 1505 1506 1504 1499 1499 1498 1496 1497 1497 1501 1499 1500 1498 1500 1502 1505 1507 1509 1503 1502 1494 1488 1490 1497 1498 1500 1499 1489 1457 1461 1465 1454 1448 1447 1445
1494 1494 1494 1495 1494 1494 1494 1495 1498 1499 1498 1499 1500 1503 1505 1504 1504 1504 1505 1504 1503 1504 1499 1497 1495 1495 1495 1495 1496 1495 1497 1494 1493 1500 1503 1501 1499 1502 1499 1494 1486 1492 1478 1481 1480 1466 1448 1449 1447 1447 1447 1447 1446 1445
1487 1486 1488 1487 1488 1488 1487 1489 1492 1494 1494 1494 1496 1498 1499 1501 1502 1504 1503 1501 1501 1500 1496 1491 1489 1490 1490 1492 1494 1496 1494 1493 1494 1494 1495 1496 1495 1493 1494 1493 1481 1473 1469 1470 1465 1440 1440 1440 1439 1440 1442 1442 1444 1444
1479 1479 1481 1480 1480 1481 1482 1482 1485 1488 1490 1490 1491 1495 1497 1498 1499 1500 1499 1499 1498 1498 1495 1489 1487 1486 1486 1488 1489 1491 1493 1492 1493 1494 1493 1495 1494 1487 1486 1480 1479 1469 1469 1465 1461 1444 1440 1436 1432 1432 1432 1433 1436 1439
1471 1472 1472 1474 1473 1475 1476 1476 1478 1482 1483 1486 1486 1489 1492 1495 1496 1497 1499 1499 1498 1498 1492 1485 1484 1485 1483 1484 1486 1486 1488 1489 1491 1491 1493 1495 1489 1487 1481 1480 1469 1455 1454 1457 1450 1438 1438 1434 1433 1432 1432 1429 1428 1429
1462 1464 1465 1465 1465 1468 1469 1469 1472 1475 1478 1479 1481 1484 1486 1490 1493 1496 1495 1491 1494 1495 1493 1486 1478 1477 1480 1481 1483 1484 1486 1486 1487 1486 1485 1480 1479 1483 1483 1474 1443 1441 1440 1440 1437 1435 1434 1432 1431 1431 1429 1427 1427 1426
1453 1455 1457 1457 1456 1460 1462 1463 1465 1469 1472 1474 1474 1477 1481 1487 1488 1490 1491 1490 1488 1496 1494 1485 1474 1472 1475 1479 1480 1482 1484 1486 1485 1484 1480 1476 1475 1476 1473 1458 1432 1436 1436 1435 1435 1433 1427 1425 1423 1424 1422 1421 1421 1420
1444 1446 1448 1449 1449 1451 1455 1455 1458 1462 1466 1468 1470 1474 1477 1482 1485 1484 1487 1488 1489 1490 1492 1486 1475 1473 1472 1475 1478 1478 1479 1483 1482 1478 1475 1473 1473 1471 1460 1428 1428 1430 1430 1427 1426 1425 1420 1418 1415 1414 1415 1414 1412 1411
1434 1437 1439 1441 1442 1444 1447 1449 1451 1456 1460 1464 1469 1471 1474 1476 1480 1479 1483 1484 1485 1488 1480 1477 1475 1470 1471 1471 1473 1476 1476 1478 1479 1475 1470 1469 1462 1453 1424 1421 1422 1423 1425 1422 1418 1416 1415 1413 1409 1407 1406 1404 1403 1403
1424 1427 1430 1432 1434 1435 1438 1441 1444 1449 1454 1459 1464 1467 1467 1468 1471 1477 1477 1478 1477 1475 1471 1464 1462 1466 1463 1471 1472 1475 1474 1472 1476 1466 1466 1463 1442 1424 1415 1413 1416 1417 1418 1419 1414 1407 1407 1404 1402 1399 1398 1396 1394 1395
1416 1418 1420 1423 1426 1426 1429 1433 1436 1441 1446 1451 1455 1460 1461 1463 1467 1469 1470 1469 1464 1463 1455 1448 1447 1453 1460 1462 1464 1464 1466 1468 1473 1460 1463 1454 1434 1408 1406 1408 1407 1413 1416 1414 1411 1407 1405 1402 1396 1391 1387 1387 1387 1387
1405 1410 1411 1413 1418 1418 1420 1425 1427 1429 1432 1441 1446 1452 1458 1460 1460 1462 1457 1454 1453 1448 1441 1440 1441 1443 1451 1454 1458 1463 1461 1462 1461 1455 1460 1446 1411 1402 1404 1407 1409 1408 1408 1408 1406 1403 1399 1395 1392 1387 1382 1378 1379 1381
1399 1401 1403 1404 1407 1409 1412 1414 1416 1418 1423 1433 1439 1441 1446 1451 1453 1443 1439 1440 1433 1421 1426 1431 1438 1444 1447 1448 1451 1456 1462 1458 1450 1451 1437 1413 1397 1398 1402 1404 1406 1405 1404 1403 1402 1399 1395 1390 1387 1382 1379 1377 1375 1376
1390 1393 1395 1394 1398 1399 1402 1404 1406 1408 1416 1418 1423 1429 1429 1428 1418 1408 1408 1404 1407 1408 1414 1424 1431 1436 1438 1441 1444 1451 1446 1452 1452 1445 1416 1387 1387 1392 1396 1399 1400 1399 1400 1398 1396 1392 1390 1387 1383 1380 1377 1376 1375 1375
1383 1383 1385 1386 1389 1391 1394 1394 1392 1394 1399 1402 1403 1399 1399 1391 1391 1394 1400 1401 1403 1409 1414 1422 1426 1432 1436 1437 1436 1443 1448 1443 1432 1411 1394 1383 1383 1390 1392 1394 1395 1395 1393 1392 1391 1388 1386 1384 1381 1378 1375 1373 1371 1370
1374 1374 1373 1378 1382 1383 1385 1386 1383 1385 1385 1384 1380 1379 1381 1385 1387 1390 1395 1400 1401 1406 1414 1416 1420 1426 1425 1426 1431 1429 1432 1421 1395 1388 1383 1382 1384 1387 1390 1392 1391 1390 1389 1388 1387 1386 1382 1379 1378 1375 1372 1369 1367 1365
1367 1362 1367 1371 1376 1376 1376 1378 1375 1370 1371 1365 1365 1365 1366 1368 1368 1376 1386 1392 1399 1402 1404 1407 1412 1405 1413 1420 1416 1407 1399 1382 1377 1376 1381 1383 1383 1386 1387 1388 1388 1387 1385 1384 1383 1382 1379 1375 1373 1371 1368 1366 1363 1362
1354 1356 1363 1365 1368 1368 1366 1361 1361 1357 1354 1352 1355 1356 1362 1363 1364 1369 1373 1383 1394 1394 1394 1397 1395 1397 1397 1402 1393 1373 1368 1371 1372 1373 1376 1379 1380 1382 1382 1383 1383 1382 1382 1380 1378 1376 1374 1370 1367 1365 1363 1362 1360 1359
1346 1351 1355 1358 1362 1362 1359 1354 1349 1344 1343 1345 1347 1348 1355 1361 1361 1362 1364 1369 1375 1382 1387 1392 1388 1382 1374 1364 1358 1360 1363 1363 1367 1369 1370 1371 1374 1375 1376 1376 1376 1376 1374 1372 1370 1370 1368 1365 1361 1359 1358 1357 1356 1357
1341 1344 1348 1353 1356 1355 1353 1346 1342 1340 1336 1336 1341 1344 1347 1350 1356 1360 1361 1365 1369 1376 1379 1373 1359 1353 1349 1350 1354 1355 1356 1358 1361 1363 1365 1366 1367 1367 1368 1368 1368 1367 1364 1363 1361 1360 1360 1358 1354 1352 1351 1349 1348 1349
1334 1336 1341 1343 1345 1343 1340 1337 1333 1329 1330 1333 1333 1337 1342 1344 1349 1353 1356 1360 1361 1356 1349 1340 1343 1345 1346 1348 1350 1352 1349 1352 1354 1357 1357 1358 1360 1359 1359 1359 1358 1357 1355 1354 1352 1351 1351 1348 1346 1346 1344 1343 1343 1345
1325 1330 1333 1335 1336 1334 1330 1325 1325 1323 1325 1323 1329 1332 1334 1336 1339 1343 1346 1347 1339 1329 1326 1331 1330 1333 1335 1335 1337 1340 1343 1344 1349 1347 1348 1349 1348 1349 1348 1350 1349 1347 1346 1345 1344 1341 1341 1340 1338 1337 1337 1337 1337 1338
1321 1325 1328 1329 1329 1325 1320 1319 1317 1316 1320 1320 1323 1325 1327 1329 1330 1334 1332 1325 1315 1314 1317 1318 1320 1324 1325 1325 1327 1329 1331 1335 1336 1335 1336 1336 1337 1339 1340 1341 1340 1338 1337 1337 1335 1334 1333 1334 1331 1329 1330 1330 1331 1333
1315 1319 1319 1318 1316 1312 1313 1311 1309 1310 1312 1315 1315 1315 1318 1319 1323 1323 1315 1302 1301 1308 1307 1309 1313 1315 1315 1315 1314 1315 1318 1322 1322 1322 1323 1323 1325 1328 1331 1329 1329 1329 1329 1329 1328 1326 1325 1324 1325 1323 1323 1323 1326 1328
1309 1310 1310 1304 1304 1304 1304 1305 1304 1303 1305 1303 1307 1309 1311 1314 1315 1313 1302 1291 1299 1297 1298 1302 1302 1302 1299 1298 1301 1301 1305 1306 1306 1307 1310 1313 1316 1319 1321 1319 1318 1319 1321 1322 1319 1318 1318 1318 1317 1317 1316 1317 1320 1322
1298 1295 1293 1288 1290 1295 1294 1301 1300 1300 1298 1300 1300 1302 1304 1307 1309 1298 1283 1284 1287 1284 1282 1281 1280 1283 1283 1285 1288 1289 1289 1292 1297 1297 1300 1305 1306 1307 1311 1311 1311 1311 1312 1312 1311 1310 1310 1309 1309 1309 1311 1312 1314 1316
1288 1282 1279 1280 1281 1281 1287 1287 1288 1291 1294 1292 1293 1298 1301 1301 1295 1277 1269 1271 1266 1262 1265 1264 1265 1268 1270 1272 1274 1278 1282 1284 1286 1289 1293 1295 1297 1300 1303 1305 1304 1305 1304 1304 1303 1302 1302 1301 1302 1302 1305 1306 1308 1310
1269 1269 1276 1276 1278 1279 1282 1284 1283 1282 1278 1278 1282 1285 1284 1278 1267 1257 1256 1255 1256 1259 1258 1256 1258 1261 1263 1264 1268 1272 1274 1277 1280 1283 1287 1290 1292 1294 1296 1297 1297 1296 1297 1297 1297 1295 1295 1294 1296 1296 1298 1300 1302 1304
1261 1261 1266 1272 1275 1276 1273 1270 1267 1260 1259 1263 1266 1265 1259 1254 1254 1254 1253 1253 1254 1252 1249 1247 1249 1254 1257 1259 1263 1266 1269 1271 1274 1278 1282 1285 1287 1289 1290 1289 1289 1289 1289 1290 1289 1289 1288 1289 1290 1290 1293 1296 1298 1302
1252 1256 1260 1263 1265 1264 1257 1255 1250 1251 1252 1252 1251 1249 1246 1245 1246 1248 1249 1249 1249 1246 1245 1246 1250 1252 1254 1256 1259 1262 1264 1268 1271 1273 1274 1278 1280 1281 1281 1281 1282 1282 1283 1282 1283 1282 1283 1284 1284 1285 1288 1291 1295 1299
1244 1250 1253 1254 1254 1250 1252 1251 1250 1249 1247 1244 1243 1243 1240 1240 1239 1240 1241 1243 1243 1242 1244 1245 1248 1251 1252 1254 1255 1258 1261 1264 1265 1267 1269 1271 1272 1273 1273 1273 1274 1275 1275 1276 1277 1278 1279 1279 1281 1284 1286 1289 1293 1298
1238 1241 1245 1250 1249 1246 1246 1246 1246 1247 1244 1243 1241 1239 1238 1238 1235 1233 1231 1232 1233 1233 1236 1240 1243 1245 1247 1249 1250 1253 1255 1256 1258 1259 1260 1262 1265 1266 1266 1266 1268 1269 1270 1271 1273 1274 1274 1277 1280 1282 1286 1290 1294 1299
1234 1236 1238 1240 1241 1242 1241 1242 1240 1241 1240 1238 1236 1235 1235 1235 1229 1222 1220 1222 1225 1227 1231 1235 1238 1239 1240 1240 1241 1244 1246 1248 1249 1250 1252 1255 1257 1258 1259 1260 1263 1265 1266 1268 1269 1269 1272 1277 1280 1283 1287 1291 1295 1298